Simultaneous Nadir Overpasses (SNOs) Predictions

Prediction of SNOs between GOES-17 and NOAA-19 Satellite Orbit:

Table of predicted SNOs for the next 14.0 days since TLE Epoch: 11/29/2019
Index Date Time (GOES-17) GOES-17 Lat,Lon NOAA-19 Lat,Lon Distance(km) Time Diff (sec)
1 11/30/2019 02:43:55 -0.04,-137.20 -0.65,-139.93 310.76 80
2 12/01/2019 02:29:35 -0.04,-137.20 -0.01,-137.08 14.01 80
3 12/02/2019 02:17:56 -0.04,-137.20 0.63,-134.23 338.69 80
4 12/04/2019 14:41:42 0.05,-137.19 0.52,-139.22 231.37 80
5 12/05/2019 14:27:22 0.04,-137.19 -0.13,-136.37 93.04 80
6 12/06/2019 14:15:44 0.04,-137.18 -0.83,-133.53 417.29 80
7 12/08/2019 02:51:06 -0.05,-137.17 -1.01,-141.35 477.53 80
8 12/09/2019 02:39:26 -0.05,-137.16 -0.37,-138.50 153.70 80
9 12/10/2019 02:25:07 -0.05,-137.15 0.27,-135.65 169.96 80
10 12/11/2019 02:13:29 -0.06,-137.13 0.97,-132.82 493.37 80
11 12/12/2019 14:48:52 0.07,-137.11 0.90,-140.64 403.20 80
12 12/13/2019 14:37:12 0.07,-137.09 0.25,-137.79 80.31 80




NCC Satellite Simultaneous Nadir Overpasses (SNOs) Prediction Service
